[[{"header":{"parameterUnit":"m.s-1","parameterCategory":1,"la1":30.2991,"la2":30.254,"lo1":-89.0895,"lo2":-89.0444,"dy":0.0017,"dx":0.0017,"nx":28,"ny":28,"refTime":"2024-04-12T03:00:00:Z","depth":0,"parameterNumber":2,"parameterNumberName":"U-component_of_WINDS"},"data":[0,0,0,0,0,0,0,0,0,0,0,0,0,0,0,0,0,0,0,0,0,0,0,0,0,0,0,0,0,0,0,0,0,0,0,0,0,0,0,0,0,0,0,0,0,0,0,0,0,0,0,0,0,0,0,0,0,0,-0.0793,-0.0792,0,-0.0736,-0.0735,-0.0735,-0.0676,-0.0675,-0.0674,-0.0673,-0.0615,-0.0615,-0.0614,0,0,0,0,0,0,0,0,0,0,0,0,0,-0.0854,-0.0853,-0.0793,-0.0792,-0.0792,-0.0736,-0.0735,-0.0734,-0.0676,-0.0675,-0.0674,-0.0673,-0.0616,-0.0615,-0.0614,0,0,0,0,0,0,0,0,0,0,0,0,0,-0.0815,-0.0853,-0.0793,-0.0756,-0.0752,-0.0736,-0.0735,-0.0734,-0.0676,-0.0675,-0.0673,-0.0672,-0.0616,-0.0615,-0.0614,-0.0631,0,0,-0.061,-0.061,0,0,0,0,0,0,0,0,-0.0818,-0.0813,-0.0762,-0.0758,-0.0754,-0.0712,-0.0735,-0.07,-0.0676,-0.0705,-0.0673,-0.0672,-0.0648,-0.0645,-0.0637,-0.0628,-0.0626,-0.061,-0.0609,-0.0609,-0.0609,0,0,0,0,0,0,0,-0.082,-0.0815,-0.077,-0.0761,-0.0756,-0.0742,-0.0736,-0.0728,-0.0684,-0.0702,-0.0698,-0.0692,-0.0646,-0.0638,-0.0635,-0.0625,-0.061,-0.0609,-0.0608,-0.0608,-0.0631,-0.0632,0,0,0,0,0,0,-0.0828,-0.0818,-0.0772,-0.0769,-0.0783,-0.0742,-0.0735,-0.0726,-0.0684,-0.0676,-0.0693,-0.0689,-0.064,-0.0636,-0.0633,-0.0652,-0.0609,-0.0608,-0.0607,-0.063,-0.0631,-0.0633,0,0,0,0,0,0,-0.083,-0.0825,-0.0775,-0.0792,-0.0785,-0.0743,-0.0734,-0.0726,-0.0718,-0.0677,-0.0669,-0.0692,-0.0639,-0.0634,-0.0632,-0.0649,-0.0607,-0.0606,-0.0628,-0.063,-0.0632,-0.0689,0,0,0,0,0,0,-0.0832,-0.0826,-0.0831,-0.0793,-0.0784,-0.0775,-0.0735,-0.0726,-0.0716,-0.071,-0.0674,-0.0667,-0.0638,-0.0634,-0.0631,-0.0646,-0.0605,-0.0626,-0.0629,-0.0631,-0.0686,-0.0693,-0.0699,0,0,0,0,0,-0.0834,-0.0849,-0.0832,-0.0826,-0.079,-0.0776,-0.0771,-0.0736,-0.0717,-0.0723,-0.0697,-0.0669,-0.0648,-0.0635,-0.0631,-0.0646,-0.0625,-0.0628,-0.0631,-0.0683,-0.0691,-0.0699,0,0,0,0,0,0,-0.089,-0.0843,-0.0823,-0.0826,-0.0805,-0.0766,-0.0771,-0.0746,-0.0731,-0.0727,-0.0685,-0.0677,-0.0681,-0.0663,-0.065,-0.0662,-0.0633,-0.0635,-0.0673,-0.0681,-0.0688,-0.0692,-0.0604,0,0,0,0,0,-0.0903,-0.0895,-0.0854,-0.0861,-0.0851,-0.0814,-0.0806,-0.0782,-0.0759,-0.075,-0.0724,-0.0703,-0.0692,-0.0686,-0.0673,-0.0683,-0.0675,-0.0692,-0.0698,-0.0704,-0.0707,-0.0713,-0.072,-0.0642,-0.0642,-0.0642,0,0,-0.0928,-0.0902,-0.0899,-0.0871,-0.0852,-0.0846,-0.0807,-0.0801,-0.0796,-0.0749,-0.0746,-0.0727,-0.0701,-0.0706,-0.0707,-0.0691,-0.0727,-0.0708,-0.0713,-0.0712,-0.0717,-0.0724,-0.0731,-0.0644,-0.0644,-0.0644,0,0,-0.0973,-0.0951,-0.0955,-0.0937,-0.091,-0.0885,-0.0886,-0.0851,-0.0836,-0.0833,-0.0798,-0.0793,-0.0774,-0.0757,-0.0747,-0.0788,-0.0762,-0.0786,-0.082,-0.0827,-0.0833,-0.0839,-0.0855,-0.0861,-0.0788,-0.0788,-0.0788,0,-0.1008,-0.0997,-0.096,-0.0958,-0.0947,-0.0905,-0.0909,-0.0894,-0.0864,-0.0858,-0.0841,-0.0819,-0.0798,-0.08,-0.081,-0.0803,-0.0804,-0.0789,-0.0835,-0.084,-0.0845,-0.086,-0.0866,-0.0791,-0.0791,-0.0791,-0.079,0,-0.1043,-0.1036,-0.1043,-0.1015,-0.1006,-0.1007,-0.0971,-0.0966,-0.0944,-0.0921,-0.092,-0.0894,-0.0877,-0.0875,-0.0852,-0.0875,-0.0866,-0.0843,-0.0813,-0.0856,-0.0869,-0.0875,-0.0796,-0.0795,-0.0794,-0.0793,0,0,-0.1119,-0.1073,-0.1076,-0.1064,-0.1032,-0.1026,-0.1027,-0.101,-0.1007,-0.0989,-0.0989,-0.0975,-0.0954,-0.0943,-0.0918,-0.0924,-0.0961,-0.09,-0.0899,-0.0913,-0.0986,-0.1004,-0.1011,-0.0943,-0.0944,-0.0945,-0.0988,0,-0.1158,-0.1155,-0.1124,-0.113,-0.1125,-0.1086,-0.1086,-0.1067,-0.1047,-0.104,-0.1018,-0.101,-0.0982,-0.0975,-0.0979,-0.0955,-0.0975,-0.0952,-0.0944,-0.0944,-0.0952,-0.1018,-0.1036,-0.1079,-0.0993,-0.0994,-0.0995,0,-0.1203,-0.1188,-0.1195,-0.1164,-0.1161,-0.1162,-0.1145,-0.1139,-0.1117,-0.1102,-0.1091,-0.1063,-0.1063,-0.1035,-0.1035,-0.102,-0.1015,-0.1004,-0.1005,-0.1003,-0.0972,-0.1019,-0.1091,-0.1098,-0.1002,-0.1002,-0.1001,0,-0.126,-0.1241,-0.1243,-0.1234,-0.1198,-0.1201,-0.1186,-0.1163,-0.1156,-0.1142,-0.1137,-0.1124,-0.1116,-0.1107,-0.1077,-0.1059,-0.1082,-0.105,-0.107,-0.1071,-0.1076,-0.1077,-0.115,-0.1073,-0.1072,-0.1072,-0.1072,0,-0.1307,-0.1313,-0.1269,-0.127,-0.1276,-0.124,-0.1248,-0.1229,-0.121,-0.1208,-0.1174,-0.1173,-0.1134,-0.1129,-0.1106,-0.1111,-0.1107,-0.1096,-0.109,-0.1099,-0.1101,-0.1096,-0.1093,-0.1074,-0.1074,-0.1073,-0.1073,0,-0.1372,-0.1342,-0.1342,-0.1309,-0.1301,-0.1307,-0.1279,-0.128,-0.1258,-0.1256,-0.1254,-0.122,-0.1213,-0.1183,-0.1168,-0.1153,-0.1166,-0.1153,-0.1173,-0.1169,-0.1191,-0.119,-0.1264,-0.1273,-0.119,-0.1191,-0.1191,0,-0.1404,-0.1408,-0.1376,-0.1372,-0.1359,-0.1354,-0.1347,-0.1313,-0.1307,-0.1285,-0.1288,-0.1279,-0.1269,-0.126,-0.1235,-0.1224,-0.1211,-0.1238,-0.121,-0.122,-0.1213,-0.1214,-0.1215,-0.1245,-0.1246,-0.1246,-0.1247,0,-0.1466,-0.1452,-0.1442,-0.1429,-0.1422,-0.141,-0.1395,-0.1395,-0.1357,-0.1353,-0.1345,-0.1338,-0.1324,-0.1315,-0.1301,-0.1287,-0.1262,-0.1257,-0.1261,-0.1271,-0.1283,-0.1278,-0.1191,-0.1255,-0.1254,-0.1254,-0.1253,-0.1253,-0.1516,-0.1518,-0.1497,-0.1489,-0.1475,-0.1463,-0.1463,-0.1442,-0.1435,-0.1421,-0.1401,-0.1397,-0.1378,-0.1356,-0.1345,-0.1341,-0.1327,-0.1333,-0.1334,-0.1336,-0.1342,-0.1283,-0.1339,-0.1338,-0.1338,-0.1338,-0.1338,0,-0.1577,-0.1562,-0.1555,-0.1537,-0.1531,-0.1507,-0.1491,-0.1488,-0.1485,-0.1469,-0.1461,-0.1454,-0.1446,-0.1421,-0.1411,-0.1413,-0.1402,-0.1412,-0.1412,-0.141,-0.1355,-0.1353,-0.1422,-0.1422,-0.1422,-0.1422,-0.1422,-0.1422,-0.1608,-0.1612,-0.1595,-0.1593,-0.1577,-0.1573,-0.1566,-0.1556,-0.1543,-0.1536,-0.153,-0.1514,-0.1495,-0.1484,-0.1476,-0.1469,-0.1468,-0.1482,-0.1472,-0.1421,-0.1413,-0.1405,-0.1403,-0.1482,-0.1482,-0.1527,-0.1527,-0.1527]},{"header":{"parameterUnit":"m.s-1","parameterCategory":1,"la1":30.2991,"la2":30.254,"lo1":-89.0895,"lo2":-89.0444,"dy":0.0017,"dx":0.0017,"nx":28,"ny":28,"refTime":"2024-04-12T03:00:00:Z","depth":0,"parameterNumber":3,"parameterNumberName":"V-component_of_WINDS"},"data":[0,0,0,0,0,0,0,0,0,0,0,0,0,0,0,0,0,0,0,0,0,0,0,0,0,0,0,0,0,0,0,0,0,0,0,0,0,0,0,0,0,0,0,0,0,0,0,0,0,0,0,0,0,0,0,0,0,0,4.0928,4.0928,0,4.0934,4.0934,4.0934,4.0953,4.0954,4.0954,4.0955,4.0957,4.0956,4.0956,0,0,0,0,0,0,0,0,0,0,0,0,0,4.0929,4.0929,4.0928,4.0928,4.0928,4.0934,4.0934,4.0934,4.0953,4.0954,4.0954,4.0955,4.0957,4.0956,4.0956,0,0,0,0,0,0,0,0,0,0,0,0,0,4.0931,4.0929,4.0928,4.0938,4.0939,4.0934,4.0934,4.0934,4.0953,4.0954,4.0955,4.0955,4.0957,4.0956,4.0956,4.0939,0,0,4.0954,4.0954,0,0,0,0,0,0,0,0,4.0931,4.0931,4.0937,4.0938,4.0939,4.0944,4.0935,4.0936,4.0953,4.0948,4.0955,4.0956,4.0952,4.0952,4.0951,4.0939,4.094,4.0954,4.0954,4.0954,4.0954,0,0,0,0,0,0,0,4.0931,4.0931,4.093,4.0937,4.0938,4.0942,4.0943,4.0936,4.0946,4.0948,4.095,4.095,4.0952,4.0952,4.0951,4.094,4.0954,4.0954,4.0953,4.0953,4.0916,4.0915,0,0,0,0,0,0,4.093,4.0931,4.093,4.093,4.0937,4.0941,4.0942,4.0941,4.0946,4.0947,4.095,4.0951,4.0952,4.0952,4.0951,4.0933,4.0954,4.0953,4.0953,4.0916,4.0915,4.0915,0,0,0,0,0,0,4.093,4.093,4.093,4.0931,4.0931,4.0941,4.0939,4.0941,4.0941,4.0947,4.0949,4.0948,4.0953,4.0952,4.0943,4.0933,4.0953,4.0952,4.0917,4.0916,4.0915,4.0895,0,0,0,0,0,0,4.093,4.093,4.0924,4.0931,4.0931,4.0922,4.0939,4.0941,4.094,4.0942,4.0945,4.0947,4.0953,4.0943,4.0942,4.0933,4.0952,4.0918,4.0917,4.0915,4.0897,4.0894,4.0891,0,0,0,0,0,4.093,4.0917,4.0924,4.0923,4.0925,4.0921,4.0921,4.093,4.0939,4.0933,4.0938,4.0946,4.0935,4.0942,4.0941,4.0931,4.0918,4.0917,4.0915,4.0898,4.0894,4.0891,0,0,0,0,0,0,4.0907,4.0918,4.0925,4.0915,4.0917,4.0924,4.0917,4.0926,4.0925,4.0926,4.0936,4.0937,4.0926,4.0928,4.0936,4.0916,4.0928,4.0926,4.0915,4.0912,4.0909,4.0908,4.0952,0,0,0,0,0,4.0901,4.0898,4.0908,4.0897,4.0898,4.0908,4.0906,4.0913,4.0916,4.0916,4.092,4.0921,4.0917,4.0915,4.0912,4.0897,4.0898,4.089,4.0887,4.0885,4.0883,4.0876,4.0872,4.091,4.091,4.091,0,0,4.0888,4.0893,4.0891,4.0893,4.0895,4.0892,4.0908,4.0903,4.09,4.0915,4.0907,4.091,4.0911,4.0899,4.0894,4.09,4.0873,4.0883,4.0881,4.088,4.0874,4.087,4.0867,4.0909,4.0909,4.0909,0,0,4.0862,4.0866,4.0858,4.0861,4.0866,4.0872,4.0871,4.0877,4.088,4.0873,4.0884,4.088,4.0874,4.0875,4.0874,4.0851,4.0859,4.0849,4.0834,4.0827,4.0824,4.0821,4.0813,4.081,4.0848,4.0847,4.0847,0,4.0844,4.084,4.0853,4.0848,4.0848,4.0863,4.0855,4.0857,4.086,4.0859,4.0866,4.086,4.0862,4.0851,4.0845,4.0845,4.0842,4.0849,4.0824,4.0821,4.0819,4.0811,4.0808,4.0846,4.0846,4.0847,4.0847,0,4.0819,4.0816,4.0809,4.0813,4.0813,4.0806,4.0817,4.0815,4.0822,4.0828,4.082,4.0823,4.0822,4.082,4.0826,4.081,4.0814,4.0822,4.0834,4.0814,4.0807,4.0804,4.0845,4.0845,4.0845,4.0846,0,0,4.0777,4.079,4.0787,4.079,4.0797,4.0794,4.0788,4.0788,4.0787,4.0788,4.0783,4.0778,4.0787,4.0786,4.0793,4.0787,4.0769,4.0797,4.0797,4.0791,4.0751,4.0744,4.074,4.0774,4.0774,4.0773,4.0751,0,4.0753,4.0745,4.0756,4.0745,4.0742,4.0758,4.0752,4.0756,4.0761,4.0759,4.0764,4.0761,4.0772,4.0772,4.0767,4.0772,4.0761,4.0774,4.0769,4.0768,4.0767,4.0737,4.0729,4.0707,4.0748,4.0747,4.0747,0,4.0723,4.0725,4.0714,4.0723,4.0723,4.0718,4.072,4.0718,4.0722,4.0726,4.0726,4.0735,4.0729,4.0742,4.0734,4.0743,4.0741,4.0744,4.0743,4.0742,4.0756,4.0735,4.0701,4.0697,4.0743,4.0743,4.0743,0,4.0694,4.0694,4.0688,4.069,4.07,4.0696,4.07,4.0705,4.0704,4.0706,4.0706,4.0705,4.0705,4.0704,4.0713,4.0721,4.0703,4.0717,4.0706,4.0706,4.0701,4.0701,4.0666,4.0701,4.0701,4.0701,4.0701,0,4.0665,4.0658,4.0675,4.0671,4.0663,4.0677,4.0668,4.0673,4.0678,4.0674,4.0687,4.0684,4.0695,4.0693,4.0699,4.0692,4.0691,4.0694,4.0696,4.0693,4.0692,4.0691,4.0693,4.07,4.07,4.07,4.07,0,4.0631,4.0642,4.0636,4.0647,4.065,4.0644,4.0652,4.0649,4.0656,4.0651,4.0651,4.0661,4.0659,4.0668,4.0667,4.0671,4.066,4.0664,4.0659,4.066,4.0649,4.065,4.0612,4.0607,4.0645,4.0645,4.0645,0,4.0611,4.0606,4.0617,4.0617,4.0621,4.062,4.062,4.0633,4.0633,4.0638,4.0633,4.0633,4.0633,4.0629,4.0635,4.0635,4.0639,4.0626,4.0638,4.0636,4.0638,4.0638,4.0638,4.0622,4.0622,4.0622,4.0621,0,4.0576,4.0582,4.0583,4.0587,4.0587,4.059,4.0593,4.0592,4.0606,4.0605,4.0604,4.0604,4.0604,4.0603,4.0604,4.0607,4.0616,4.0617,4.0615,4.0611,4.0609,4.061,4.0651,4.0618,4.0618,4.0619,4.0619,4.0619,4.0549,4.0545,4.0553,4.0554,4.0558,4.0561,4.0559,4.0567,4.0566,4.0568,4.0576,4.0573,4.0578,4.0581,4.0583,4.0581,4.0587,4.0583,4.0582,4.0581,4.0579,4.061,4.0581,4.0581,4.0581,4.0581,4.0581,0,4.0514,4.052,4.0521,4.0526,4.0527,4.0538,4.0542,4.0542,4.054,4.0544,4.0545,4.0544,4.0543,4.0551,4.0551,4.0548,4.0552,4.0547,4.0547,4.0548,4.0573,4.0576,4.0544,4.0544,4.0544,4.0544,4.0544,4.0544,4.0496,4.0491,4.0498,4.0496,4.0502,4.0501,4.0503,4.0506,4.0509,4.0508,4.0509,4.0514,4.052,4.0521,4.052,4.0523,4.0522,4.0516,4.0519,4.0543,4.0546,4.055,4.0552,4.0515,4.0515,4.0494,4.0494,4.0494]}]]